Voltar ao catálogo

STARLINK-37877

AtivoComunicaçõesSSO
NORAD 69335·PAYLOAD·🇺🇸 United States

Lançado Jun 3, 2026 de Vandenberg Space Force Base

Loading…

Próximas Passagens (próximas 24 horas)

TLE

AtualizadoSource: CelesTrak SupGP

Época: Sep 14, 2026, 22:51 UTC

1 69335C 26122G   26257.95256944  .00045544  00000+0  14139-2 0  2573
2 69335  97.2824 286.6121 0001473  88.9637  17.8259 15.33413424    15

Acompanhe STARLINK-37877 em tempo real com AllMySat

Download on the App Store